Content
SEND FEEDBACK

Daily
Averages
Monthly
Summary
United States of America

SIERRAVILLE, CALIFORNIA


Home > North America > United States > California
Elevation: 4990 feet     Latitude: 39 35N     Longitude: 120 22W

WEATHER
 
SELECT A DAY
Number of Records: 282,449;   Date Range: 1/1/95 - 8/28/14
 
SHARE

PRINT THIS DATA

[ ← Previous Day ]
WEATHER ALMANAC - FEBRUARY 5, 2013
[ Next Day → ]
[ °C ]   °F
Weather ElementAverageHighLow
Temperature29.2 °F44.6 °F (11:45 am)19.4 °F (11:55 pm)
Dewpoint18.8 °F23 °F (12:35 am)14 °F (10:35 pm)
Humidity67.9 %86 % (12:35 am)31 % (12:45 pm)
Barometer30.07 in30.13 in (12:35 am)29.99 in (4:45 pm)
Wind Speed3.9 mph16.1 mph (12:45 pm)
Wind Gust24.2 mph (10:45 am)
Weather ElementAverage
Visibility10 mi
Wind DirectionESE (122.2 °)

Weather ElementTotal
Precipitation---
Heating Degree Days33 (Base 65)
Averaged from 45 records on February 5, 2013
WEATHER CONDITIONS BREAKOUT
WIND DIRECTION BREAKOUT
WEATHER BY HOUR - FEBRUARY 5, 2013
[ °C ]   °F
Local TimeTemperatureDewpointHumidityBarometerVisibilityWind DirectionWind SpeedGust SpeedPrecipitationEventsConditions
12:35 AM26.6 °F23.0 °F86 %30.13 in10.0 miCalmClear
12:55 AM26.6 °F23.0 °F86 %30.12 in10.0 miESE (110°)3.5 mphClear
1:15 AM26.6 °F23.0 °F86 %30.12 in10.0 miCalmClear
1:35 AM28.4 °F23.0 °F80 %30.11 in10.0 miCalmClear
1:55 AM28.4 °F23.0 °F80 %30.11 in10.0 miCalm
2:15 AM26.6 °F21.2 °F80 %30.11 in10.0 miCalmClear
2:35 AM26.6 °F21.2 °F80 %30.11 in10.0 miNorth (10°)3.5 mphClear
2:55 AM26.6 °F21.2 °F80 %30.11 in10.0 miCalmClear
3:15 AM24.8 °F19.4 °F80 %30.11 in10.0 miWest (260°)3.5 mphClear
3:35 AM24.8 °F21.2 °F86 %30.11 in10.0 miSSE (160°)3.5 mphClear
3:55 AM24.8 °F19.4 °F80 %30.11 in10.0 miWSW (250°)3.5 mphClear
4:15 AM26.6 °F19.4 °F74 %30.11 in10.0 miCalmClear
4:35 AM24.8 °F19.4 °F80 %30.11 in10.0 miSouth (170°)3.5 mphClear
4:55 AM23.0 °F17.6 °F80 %30.10 in10.0 miSouth (180°)3.5 mphClear
5:15 AM23.0 °F19.4 °F86 %30.10 in10.0 miCalmClear
5:35 AM24.8 °F19.4 °F80 %30.08 in10.0 miCalmClear
7:55 AM23.0 °F15.8 °F74 %30.06 in10.0 miCalmScattered Clouds
8:50 AM23.0 °F17.6 °F80 %30.08 in10.0 miEast (100°)3.5 mphScattered Clouds
9:45 AM33.8 °F15.8 °F48 %30.07 in10.0 miSouth (190°)3.5 mphScattered Clouds
10:45 AM42.8 °F17.6 °F36 %30.06 in10.0 miSSW (210°)15.0 mph24.2 mphScattered Clouds
11:45 AM44.6 °F17.6 °F34 %30.04 in10.0 miSSW (200°)12.7 mph18.4 mphMostly Cloudy
12:45 PM44.6 °F15.8 °F31 %30.02 in10.0 miSSW (210°)16.1 mphOvercast
1:45 PM42.8 °F17.6 °F36 %30.00 in10.0 miSouth (180°)12.7 mphMostly Cloudy
4:45 PM39.2 °F17.6 °F42 %29.99 in10.0 miSE (140°)3.5 mphScattered Clouds
4:55 PM39.2 °F17.6 °F42 %29.99 in10.0 miSouth (180°)5.8 mphClear
5:15 PM39.2 °F17.6 °F42 %30.00 in10.0 miSouth (180°)10.4 mph16.1 mphClear
5:55 PM39.2 °F15.8 °F39 %30.00 in10.0 miESE (120°)3.5 mphClear
6:15 PM35.6 °F19.4 °F52 %30.02 in10.0 miNNE (30°)4.6 mphClear
6:35 PM35.6 °F19.4 °F52 %30.02 in10.0 miNNE (20°)4.6 mphClear
6:55 PM35.6 °F23.0 °F60 %30.02 in10.0 miNNW (340°)3.5 mphClear
7:15 PM32.0 °F21.2 °F64 %30.03 in10.0 miCalmClear
7:35 PM30.2 °F21.2 °F69 %30.03 in10.0 miWSW (240°)4.6 mphClear
7:55 PM28.4 °F19.4 °F69 %30.03 in10.0 miWest (260°)6.9 mphClear
8:15 PM28.4 °F19.4 °F69 %30.03 in10.0 miWNW (290°)5.8 mphClear
8:35 PM28.4 °F19.4 °F69 %30.05 in10.0 miNNE (30°)5.8 mphClear
8:55 PM30.2 °F19.4 °F64 %30.05 in10.0 miNorth (360°)3.5 mphClear
9:15 PM24.8 °F17.6 °F74 %30.06 in10.0 miSouth (180°)3.5 mphClear
9:35 PM24.8 °F17.6 °F74 %30.07 in10.0 miSSW (210°)3.5 mphClear
9:55 PM23.0 °F15.8 °F74 %30.07 in10.0 miSE (130°)4.6 mphClear
10:15 PM24.8 °F15.8 °F69 %30.08 in10.0 miSE (140°)5.8 mphClear
10:35 PM23.0 °F14.0 °F68 %30.08 in10.0 miSouth (190°)4.6 mphClear
10:55 PM21.2 °F15.8 °F80 %30.09 in10.0 miCalmClear
11:15 PM21.2 °F15.8 °F80 %30.09 in10.0 miCalmClear
11:35 PM21.2 °F15.8 °F80 %30.10 in10.0 miCalmClear
11:55 PM19.4 °F14.0 °F80 %30.09 in10.0 miSW (230°)3.5 mphClear
Hourly data recorded from KTRK, located miles away from Sierraville, California







STORIES FROM OUR PARTNERS